Location: Clair
(33.8067°N, 117.9845°W)
Time: 18:05:46
(UTC+00:00)

Cosmos 1605 Rocket - Pass Details

Date: 14 February 2026
Orbit: 943 x 1005 km, 82.9° (Epoch: 8 March)

Event Time Altitude Azimuth Distance (km) Brightness Sun altitude
Rises 13:06:17 0° 192° (SSW) 3,714 6.9 -19.5°
Reaches altitude 10° 13:08:50 10° 195° (SSW) 2,769 6.3 -18.9°
Maximum altitude 13:15:10 67° 277° (W) 1,083 4.0 -17.6°
Drops below altitude 10° 13:21:31 10° 0° (N) 2,773 6.3 -16.3°
Sets 13:24:04 0° 3° (N) 3,720 7.0 -15.8°
